Cold Bay, AK

6:06 AM AKST on December 03, 2016 (GMT -0900)
Cold Bay

Weather History for PACD - May, 2013

Change the Weather History Date:

Thursday, May 9, 2013

  Actual Average Record
Temperature  
Mean Temperature 44 °F 39 °F  
Max Temperature 49 °F 44 °F 56 °F (1972)
Min Temperature 38 °F 34 °F 26 °F (1965)
Degree Days  
Heating Degree Days 21 26  
Month to date heating degree days 250 241  
Since 1 July heating degree days 8646 8474  
Cooling Degree Days 0    
Month to date cooling degree days 0  
Year to date cooling degree days 0  
Moisture  
Dew Point 36 °F    
Average Humidity 0    
Maximum Humidity 0    
Minimum Humidity 0    
Precipitation  
Precipitation 0.02 in 0.08 in 0.57 in (1980)
Month to date precipitation 0.20 0.68  
Year to date precipitation 11.85 11.94  
Snow  
Snow 0.00 in 0.10 in 0.90 in (1958)
Month to date snowfall T 0.7  
Since 1 July snowfall 64.2 72.5  
Snow Depth 0.00 in    
Sea Level Pressure  
Sea Level Pressure 30.07 in    
Wind  
Wind Speed 5 mph (NE)    
Max Wind Speed 17 mph    
Max Gust Speed 23 mph    
Visibility 10 miles    
Events Rain    
T = Trace of Precipitation, MM = Missing Value Source: NWS Daily Summary

Daily Weather History Graph

Daily Weather History Graph

Search for Another Location

Airport or City:

Trip Planner

Search our weather history database for the weather conditions in past years. The results will help you decide how hot, cold, wet, or windy it might be!

Date:

Astronomy

May. 09, 2013 Rise Set
Actual Time 6:52 AM AKDT 10:43 PM AKDT
Civil Twilight 6:06 AM AKDT 11:29 PM AKDT
Nautical Twilight 5:00 AM AKDT 12:36 AM AKDT
Astronomical Twilight 3:19 AM AKDT 2:14 AM AKDT
Moon 6:49 AM AKDT (5/9) 10:50 PM AKDT (5/9)
Length of Visible Light 17h 23m
Length of Day
15h 51m
Waning Crescent, 0% of the Moon is Illuminated
May 9
Waning Crescent
May 9
New
May 17
First Quarter
May 24
Full
May 31
Last Quarter

Hourly Weather History & Observations

Time (AKDT) Temp. Windchill Dew Point Humidity Pressure Visibility Wind Dir Wind Speed Gust Speed Precip Events Conditions
12:30 AM 42.8 °F 36.6 °F 32.0 °F 66% 30.03 in 10.0 mi East 11.5 mph 21.9 mph N/A   Overcast
12:53 AM 42.1 °F 37.7 °F 33.1 °F 70% 30.04 in 10.0 mi East 6.9 mph - N/A   Overcast
1:53 AM 42.1 °F 36.1 °F 33.1 °F 70% 30.03 in 10.0 mi ESE 10.4 mph 23.0 mph N/A   Overcast
2:53 AM 42.1 °F 37.7 °F 33.1 °F 70% 30.04 in 10.0 mi East 6.9 mph - N/A   Overcast
3:53 AM 39.9 °F - 34.0 °F 79% 30.03 in 10.0 mi Calm Calm - 0.00 in Rain Light Rain
4:53 AM 39.0 °F - 35.1 °F 86% 30.03 in 10.0 mi Calm Calm - 0.00 in Rain Light Rain
4:59 AM 39.2 °F - 35.6 °F 87% 30.03 in 10.0 mi Calm Calm - 0.00 in   Overcast
5:23 AM 37.4 °F 34.9 °F 35.6 °F 93% 30.02 in 10.0 mi NNE 3.5 mph - 0.00 in   Overcast
5:53 AM 37.9 °F - 35.1 °F 89% 30.02 in 10.0 mi Calm Calm - 0.00 in   Overcast
6:53 AM 37.9 °F - 35.1 °F 89% 30.03 in 10.0 mi Calm Calm - N/A   Overcast
7:53 AM 39.0 °F - 35.1 °F 86% 30.03 in 10.0 mi Calm Calm - 0.00 in Rain Light Rain
8:53 AM 39.2 °F 35.9 °F 37.4 °F 93% 30.03 in 10.0 mi NNW 4.6 mph - N/A   Overcast
9:36 AM 42.8 °F 39.3 °F 37.4 °F 81% 30.04 in 10.0 mi North 5.8 mph - 0.00 in Rain Light Rain
9:53 AM 42.1 °F 37.1 °F 36.0 °F 79% 30.05 in 10.0 mi NNE 8.1 mph - 0.00 in Rain Light Rain
10:29 AM 42.8 °F 37.5 °F 37.4 °F 81% 30.05 in 10.0 mi NNE 9.2 mph - 0.01 in Rain Light Rain
10:53 AM 43.0 °F 38.2 °F 37.9 °F 82% 30.05 in 10.0 mi NE 8.1 mph - 0.01 in   Overcast
11:53 AM 44.1 °F - 37.0 °F 76% 30.06 in 10.0 mi Calm Calm - 0.00 in   Overcast
12:30 PM 44.6 °F - 37.4 °F 76% 30.06 in 10.0 mi Calm Calm - 0.00 in Rain Light Rain
12:39 PM 44.6 °F 43.1 °F 37.4 °F 76% 30.06 in 10.0 mi ENE 3.5 mph - 0.00 in   Overcast
12:46 PM 46.4 °F 44.3 °F 37.4 °F 71% 30.06 in 10.0 mi ENE 4.6 mph - 0.00 in   Overcast
12:53 PM 46.0 °F 43.9 °F 37.9 °F 73% 30.07 in 10.0 mi ENE 4.6 mph - 0.00 in   Overcast
1:53 PM 46.9 °F - 39.0 °F 74% 30.08 in 10.0 mi NNE 11.5 mph - N/A   Overcast
2:53 PM 48.9 °F - 37.9 °F 66% 30.08 in 10.0 mi NNE 6.9 mph - N/A   Overcast
3:53 PM 46.0 °F 44.8 °F 37.9 °F 73% 30.09 in 10.0 mi NE 3.5 mph - N/A   Overcast
4:01 PM 46.4 °F 43.5 °F 37.4 °F 71% 30.08 in 10.0 mi ENE 5.8 mph - N/A   Overcast
4:53 PM 45.0 °F 41.2 °F 37.0 °F 74% 30.09 in 10.0 mi NNE 6.9 mph - 0.00 in   Overcast
5:53 PM 46.0 °F 43.9 °F 37.0 °F 71% 30.09 in 10.0 mi North 4.6 mph - 0.00 in   Overcast
6:53 PM 46.9 °F - 37.0 °F 68% 30.10 in 10.0 mi East 4.6 mph - N/A   Overcast
7:53 PM 46.0 °F 41.4 °F 37.9 °F 73% 30.11 in 10.0 mi NNE 9.2 mph - N/A   Overcast
8:53 PM 44.6 °F 40.7 °F 37.4 °F 76% 30.12 in 10.0 mi NNE 6.9 mph - N/A   Overcast
9:27 PM 42.8 °F 39.3 °F 35.6 °F 76% 30.13 in 10.0 mi North 5.8 mph - N/A   Overcast
9:53 PM 43.0 °F 39.5 °F 37.0 °F 80% 30.14 in 10.0 mi NE 5.8 mph - N/A   Overcast
10:53 PM 42.1 °F 40.2 °F 37.9 °F 85% 30.17 in 10.0 mi SSE 3.5 mph - 0.00 in   Overcast
11:24 PM 42.8 °F - 37.4 °F 81% 30.17 in 10.0 mi Calm Calm - 0.00 in   Overcast
11:53 PM 42.1 °F - 37.9 °F 85% 30.19 in 10.0 mi Calm Calm - 0.00 in   Overcast